When you browse on this site, cookies collect data to enhance your experience and personalize the content and advertising you see.
Visit our Privacy Policy to learn more. By continuing to use the site, you agree to this use of cookies and data.
  • Em Portugal
  • Lista de países
  • Para 7 dias
  • Temperatura da água
  • Mapas de satélite
  • Mapa do tempo
  • Widgets de tempo
  • user-avatar
    Iniciar Sessão

    Previsão horária em Namibe

    Hoje, 17 Janeiro, Quinta-feira

    Tempo Temperatura Precipitação Vento Pressão Humidade
    00:00 +25°C° 0 mm 4 m/s 758 mmHg 71%
    01:00 +25°C° 0 mm 3 m/s 759 mmHg 70%
    02:00 +25°C° 0 mm 3 m/s 758 mmHg 70%
    03:00 +25°C° 0 mm 3 m/s 758 mmHg 70%
    04:00 +25°C° 0 mm 2 m/s 758 mmHg 70%
    05:00 +25°C° 0 mm 2 m/s 758 mmHg 69%
    06:00 +25°C° 0 mm 2 m/s 758 mmHg 68%
    07:00 +25°C° 0 mm 2 m/s 758 mmHg 67%
    08:00 +27°C° 0 mm 2 m/s 758 mmHg 60%
    09:00 +28°C° 0 mm 2 m/s 758 mmHg 53%
    10:00 +30°C° 0 mm 2 m/s 759 mmHg 46%
    11:00 +30°C° 0 mm 3 m/s 758 mmHg 44%
    12:00 +32°C° 0 mm 4 m/s 758 mmHg 42%
    13:00 +33°C° 0 mm 5 m/s 757 mmHg 40%
    14:00 +32°C° 0 mm 5 m/s 757 mmHg 42%
    15:00 +32°C° 0 mm 5 m/s 757 mmHg 45%
    16:00 +30°C° 0 mm 5 m/s 756 mmHg 47%
    17:00 +29°C° 0 mm 5 m/s 756 mmHg 51%
    18:00 +28°C° 0 mm 5 m/s 757 mmHg 56%
    19:00 +27°C° 0 mm 4 m/s 757 mmHg 61%
    20:00 +27°C° 0 mm 4 m/s 757 mmHg 63%
    21:00 +27°C° 0 mm 4 m/s 758 mmHg 65%
    22:00 +26°C° 0 mm 4 m/s 758 mmHg 67%
    23:00 +26°C° 0 mm 4 m/s 758 mmHg 66%

    Amanhã, 18 Janeiro, Sexta-feira

    Tempo Temperatura Precipitação Vento Pressão Humidade
    00:00 +26°C° 0 mm 3 m/s 758 mmHg 65%
    01:00 +26°C° 0 mm 3 m/s 758 mmHg 63%
    02:00 +26°C° 0 mm 3 m/s 758 mmHg 64%
    03:00 +26°C° 0 mm 2 m/s 757 mmHg 65%
    04:00 +26°C° 0 mm 2 m/s 757 mmHg 66%
    05:00 +25°C° 0 mm 2 m/s 758 mmHg 67%
    06:00 +25°C° 0 mm 3 m/s 758 mmHg 69%
    07:00 +25°C° 0 mm 3 m/s 758 mmHg 71%
    08:00 +26°C° 0 mm 2 m/s 758 mmHg 68%
    09:00 +26°C° 0 mm 2 m/s 759 mmHg 64%
    10:00 +27°C° 0 mm 2 m/s 759 mmHg 61%
    11:00 +29°C° 0 mm 3 m/s 758 mmHg 55%
    12:00 +30°C° 0 mm 3 m/s 757 mmHg 48%
    13:00 +33°C° 0 mm 4 m/s 757 mmHg 42%
    14:00 +32°C° 0 mm 5 m/s 756 mmHg 45%
    15:00 +32°C° 0 mm 5 m/s 756 mmHg 47%
    16:00 +30°C° 0 mm 6 m/s 755 mmHg 50%
    17:00 +29°C° 0 mm 5 m/s 756 mmHg 55%
    18:00 +28°C° 0 mm 5 m/s 756 mmHg 59%
    19:00 +27°C° 0 mm 4 m/s 757 mmHg 63%
    20:00 +27°C° 0 mm 3 m/s 757 mmHg 65%
    21:00 +26°C° 0 mm 2 m/s 758 mmHg 67%
    22:00 +26°C° 0 mm 2 m/s 759 mmHg 69%
    23:00 +25°C° 0 mm 2 m/s 758 mmHg 71%

    Depois de amanhã, 19 Janeiro, Sábado

    Tempo Temperatura Precipitação Vento Pressão Humidade
    00:00 +25°C° 0 mm 2 m/s 758 mmHg 73%
    01:00 +25°C° 0 mm 2 m/s 758 mmHg 75%
    02:00 +25°C° 0 mm 2 m/s 758 mmHg 77%
    03:00 +24°C° 0 mm 2 m/s 758 mmHg 80%
    04:00 +24°C° 0 mm 2 m/s 758 mmHg 82%
    05:00 +24°C° 0 mm 2 m/s 758 mmHg 81%
    06:00 +24°C° 0 mm 2 m/s 758 mmHg 81%
    07:00 +25°C° 0 mm 2 m/s 759 mmHg 80%
    08:00 +26°C° 0 mm 2 m/s 759 mmHg 74%
    09:00 +27°C° 0 mm 3 m/s 759 mmHg 67%
    10:00 +28°C° 0 mm 4 m/s 759 mmHg 61%
    11:00 +29°C° 0 mm 4 m/s 759 mmHg 59%
    12:00 +29°C° 0 mm 5 m/s 758 mmHg 58%
    13:00 +30°C° 0 mm 6 m/s 758 mmHg 56%
    14:00 +30°C° 0 mm 5 m/s 757 mmHg 56%
    15:00 +29°C° 0 mm 5 m/s 757 mmHg 57%
    16:00 +29°C° 0 mm 5 m/s 756 mmHg 57%
    17:00 +28°C° 0 mm 4 m/s 757 mmHg 61%
    18:00 +27°C° 0 mm 4 m/s 757 mmHg 64%
    19:00 +27°C° 0 mm 3 m/s 758 mmHg 68%
    20:00 +26°C° 0 mm 3 m/s 758 mmHg 69%
    21:00 +26°C° 0 mm 2 m/s 759 mmHg 70%
    22:00 +26°C° 0 mm 2 m/s 759 mmHg 72%
    23:00 +26°C° 0 mm 2 m/s 759 mmHg 73%

    20 Janeiro, Domingo

    Tempo Temperatura Precipitação Vento Pressão Humidade
    00:00 +25°C° 0 mm 1 m/s 759 mmHg 74%
    01:00 +25°C° 0 mm 1 m/s 758 mmHg 76%
    02:00 +25°C° 0 mm 1 m/s 758 mmHg 76%
    03:00 +25°C° 0 mm 1 m/s 758 mmHg 77%
    04:00 +25°C° 0 mm 1 m/s 758 mmHg 77%
    05:00 +25°C° 0 mm 1 m/s 758 mmHg 76%
    06:00 +26°C° 0 mm 1 m/s 759 mmHg 74%
    07:00 +26°C° 0 mm 1 m/s 759 mmHg 73%
    08:00 +27°C° 0 mm 2 m/s 759 mmHg 66%
    09:00 +29°C° 0 mm 3 m/s 759 mmHg 59%
    10:00 +30°C° 0 mm 4 m/s 759 mmHg 52%
    11:00 +32°C° 0 mm 4 m/s 759 mmHg 53%
    12:00 +32°C° 0 mm 5 m/s 758 mmHg 53%
    13:00 +32°C° 0 mm 6 m/s 757 mmHg 53%
    14:00 +30°C° 0 mm 5 m/s 757 mmHg 56%
    15:00 +30°C° 0 mm 5 m/s 757 mmHg 59%
    16:00 +29°C° 0 mm 4 m/s 756 mmHg 61%
    17:00 +28°C° 0 mm 4 m/s 757 mmHg 65%
    18:00 +28°C° 0 mm 4 m/s 758 mmHg 68%
    19:00 +27°C° 0 mm 3 m/s 758 mmHg 72%
    20:00 +27°C° 0 mm 3 m/s 759 mmHg 73%
    21:00 +26°C° 0 mm 2 m/s 759 mmHg 75%
    22:00 +26°C° 0 mm 2 m/s 760 mmHg 77%
    23:00 +26°C° 0 mm 1 m/s 760 mmHg 77%

    21 Janeiro, Segunda-feira

    Tempo Temperatura Precipitação Vento Pressão Humidade
    00:00 +26°C° 0 mm 1 m/s 760 mmHg 77%
    01:00 +26°C° 0 mm 1 m/s 759 mmHg 78%
    02:00 +25°C° 0 mm 1 m/s 759 mmHg 79%
    03:00 +25°C° 0 mm 1 m/s 759 mmHg 79%
    04:00 +25°C° 0 mm 1 m/s 758 mmHg 80%
    05:00 +25°C° 0 mm 1 m/s 759 mmHg 80%
    06:00 +23°C° 0 mm 0 m/s 759 mmHg 79%
    07:00 +23°C° 0 mm 0 m/s 760 mmHg 79%
    08:00 +25°C° 0 mm 0 m/s 760 mmHg 71%
    09:00 +28°C° 0 mm 1 m/s 760 mmHg 64%
    10:00 +30°C° 0 mm 2 m/s 760 mmHg 57%
    11:00 +31°C° 0 mm 3 m/s 759 mmHg 54%
    12:00 +33°C° 0 mm 4 m/s 758 mmHg 50%
    13:00 +34°C° 0 mm 5 m/s 758 mmHg 47%
    14:00 +33°C° 0 mm 5 m/s 757 mmHg 49%
    15:00 +32°C° 0 mm 5 m/s 757 mmHg 51%
    16:00 +32°C° 0 mm 5 m/s 756 mmHg 53%
    17:00 +30°C° 0 mm 5 m/s 757 mmHg 57%
    18:00 +29°C° 0 mm 5 m/s 757 mmHg 62%
    19:00 +28°C° 0 mm 4 m/s 757 mmHg 66%
    20:00 +28°C° 0 mm 4 m/s 758 mmHg 67%
    21:00 +27°C° 0 mm 4 m/s 758 mmHg 67%
    22:00 +27°C° 0 mm 3 m/s 759 mmHg 68%
    23:00 +27°C° 0 mm 3 m/s 758 mmHg 68%

    22 Janeiro, Terça-feira

    Tempo Temperatura Precipitação Vento Pressão Humidade
    00:00 +27°C° 0 mm 3 m/s 758 mmHg 68%
    01:00 +27°C° 0 mm 2 m/s 758 mmHg 67%
    02:00 +26°C° 0 mm 2 m/s 758 mmHg 68%
    03:00 +26°C° 0 mm 2 m/s 758 mmHg 69%
    04:00 +26°C° 0 mm 2 m/s 757 mmHg 71%
    05:00 +26°C° 0 mm 2 m/s 758 mmHg 70%
    06:00 +26°C° 0 mm 2 m/s 758 mmHg 70%
    07:00 +26°C° 0 mm 1 m/s 758 mmHg 70%
    08:00 +27°C° 0 mm 1 m/s 758 mmHg 64%
    09:00 +28°C° 0 mm 2 m/s 758 mmHg 59%
    10:00 +29°C° 0 mm 2 m/s 758 mmHg 53%
    11:00 +30°C° 0 mm 3 m/s 758 mmHg 51%
    12:00 +32°C° 0 mm 4 m/s 757 mmHg 48%
    13:00 +33°C° 0 mm 5 m/s 757 mmHg 46%
    14:00 +32°C° 0 mm 5 m/s 756 mmHg 48%
    15:00 +30°C° 0 mm 5 m/s 756 mmHg 51%
    16:00 +30°C° 0 mm 5 m/s 755 mmHg 53%
    17:00 +29°C° 0 mm 5 m/s 756 mmHg 58%
    18:00 +28°C° 0 mm 4 m/s 756 mmHg 63%
    19:00 +27°C° 0 mm 4 m/s 757 mmHg 68%
    20:00 +27°C° 0 mm 4 m/s 758 mmHg 70%
    21:00 +27°C° 0 mm 3 m/s 758 mmHg 71%
    22:00 +26°C° 0 mm 3 m/s 759 mmHg 73%
    23:00 +26°C° 0 mm 2 m/s 758 mmHg 73%
    Mostrar mais